Time,TemperatureF,DewpointF,PressureIn,WindDirection,WindDirectionDegrees,WindSpeedMPH,WindSpeedGustMPH,Humidity,HourlyPrecipIn,Conditions,Clouds,dailyrainin,SoftwareType,DateUTC
2013-09-30 00:00:00,54.9,47.8,29.91,South,181,0.0,0.0,77,0.00,,,0.01,Wunderground v.1.15,2013-09-30 05:00:00,
2013-09-30 00:05:00,54.8,47.7,29.91,South,182,0.0,0.0,77,0.00,,,0.00,Wunderground v.1.15,2013-09-30 05:05:00,
2013-09-30 00:10:00,54.6,47.9,29.91,South,182,0.0,0.0,78,0.00,,,0.00,Wunderground v.1.15,2013-09-30 05:10:00,
2013-09-30 00:15:00,54.5,47.8,29.91,South,182,0.0,0.0,78,0.00,,,0.00,Wunderground v.1.15,2013-09-30 05:15:00,
2013-09-30 00:20:00,54.4,47.7,29.91,South,182,0.0,0.0,78,0.00,,,0.00,Wunderground v.1.15,2013-09-30 05:20:00,
2013-09-30 00:29:00,54.3,47.9,29.91,South,182,0.0,0.0,79,0.00,,,0.00,Wunderground v.1.15,2013-09-30 05:29:00,
2013-09-30 00:35:00,54.2,47.8,29.91,South,182,0.0,0.0,79,0.00,,,0.00,Wunderground v.1.15,2013-09-30 05:35:00,
2013-09-30 00:40:00,54.0,47.6,29.91,South,182,0.0,0.0,79,0.00,,,0.00,Wunderground v.1.15,2013-09-30 05:40:00,
2013-09-30 00:45:00,53.7,47.7,29.91,South,182,0.0,0.0,80,0.00,,,0.00,Wunderground v.1.15,2013-09-30 05:45:00,
2013-09-30 00:50:00,53.5,47.5,29.91,South,182,0.0,0.0,80,0.00,,,0.00,Wunderground v.1.15,2013-09-30 05:50:00,
2013-09-30 00:55:00,53.3,47.3,29.90,South,182,0.0,0.0,80,0.00,,,0.00,Wunderground v.1.15,2013-09-30 05:55:00,
2013-09-30 01:00:00,53.3,47.6,29.91,South,191,0.0,0.0,81,0.00,,,0.00,Wunderground v.1.15,2013-09-30 06:00:00,
2013-09-30 01:10:00,53.5,47.5,29.91,South,191,0.0,0.0,80,0.00,,,0.00,Wunderground v.1.15,2013-09-30 06:10:00,
2013-09-30 01:15:00,53.5,47.5,29.91,South,190,0.0,0.0,80,0.00,,,0.00,Wunderground v.1.15,2013-09-30 06:15:00,
2013-09-30 01:20:00,53.4,47.4,29.91,South,190,0.0,0.0,80,0.00,,,0.00,Wunderground v.1.15,2013-09-30 06:20:00,
2013-09-30 01:25:00,53.2,47.5,29.91,South,190,0.0,0.0,81,0.00,,,0.00,Wunderground v.1.15,2013-09-30 06:25:00,
2013-09-30 01:30:00,53.0,47.3,29.91,South,190,0.0,0.0,81,0.00,,,0.00,Wunderground v.1.15,2013-09-30 06:30:00,
2013-09-30 01:35:00,52.9,47.6,29.91,South,190,0.0,0.0,82,0.00,,,0.00,Wunderground v.1.15,2013-09-30 06:35:00,
2013-09-30 01:45:00,52.6,47.3,29.91,South,190,0.0,0.0,82,0.00,,,0.00,Wunderground v.1.15,2013-09-30 06:45:00,
2013-09-30 01:50:00,52.6,47.6,29.90,South,187,0.0,0.0,83,0.00,,,0.00,Wunderground v.1.15,2013-09-30 06:50:00,
2013-09-30 01:55:00,52.8,47.8,29.90,South,188,0.0,0.0,83,0.00,,,0.00,Wunderground v.1.15,2013-09-30 06:55:00,
2013-09-30 02:00:00,53.2,48.2,29.90,SSE,157,0.0,0.0,83,0.00,,,0.00,Wunderground v.1.15,2013-09-30 07:00:00,
2013-09-30 02:05:00,53.4,48.0,29.90,SSE,157,0.0,0.0,82,0.00,,,0.00,Wunderground v.1.15,2013-09-30 07:05:00,
2013-09-30 02:15:00,54.0,48.3,29.90,SSW,200,0.0,0.0,81,0.00,,,0.00,Wunderground v.1.15,2013-09-30 07:15:00,
2013-09-30 02:24:00,54.0,48.3,29.89,SE,144,0.0,0.0,81,0.00,,,0.00,Wunderground v.1.15,2013-09-30 07:24:00,
2013-09-30 02:30:00,54.0,48.3,29.90,SE,144,0.0,0.0,81,0.00,,,0.00,Wunderground v.1.15,2013-09-30 07:30:00,
2013-09-30 02:35:00,53.9,48.2,29.90,SE,145,0.0,0.0,81,0.00,,,0.00,Wunderground v.1.15,2013-09-30 07:35:00,
2013-09-30 02:40:00,53.9,48.2,29.89,SSE,150,0.0,0.0,81,0.00,,,0.00,Wunderground v.1.15,2013-09-30 07:40:00,
2013-09-30 02:45:00,53.8,48.1,29.89,SSE,159,0.0,0.0,81,0.00,,,0.00,Wunderground v.1.15,2013-09-30 07:45:00,
2013-09-30 02:50:00,53.7,48.0,29.89,SSE,162,0.0,0.0,81,0.00,,,0.00,Wunderground v.1.15,2013-09-30 07:50:00,
2013-09-30 02:55:00,53.5,48.1,29.89,SSE,161,0.0,0.0,82,0.00,,,0.00,Wunderground v.1.15,2013-09-30 07:55:00,
2013-09-30 03:00:00,53.2,47.8,29.89,SSE,162,0.0,0.0,82,0.00,,,0.00,Wunderground v.1.15,2013-09-30 08:00:00,
2013-09-30 03:05:00,53.0,48.0,29.88,SSE,161,0.0,0.0,83,0.00,,,0.00,Wunderground v.1.15,2013-09-30 08:05:00,
2013-09-30 03:14:00,53.0,48.0,29.88,SSW,197,0.0,0.0,83,0.00,,,0.00,Wunderground v.1.15,2013-09-30 08:14:00,
2013-09-30 03:20:00,53.0,48.0,29.89,South,171,0.0,0.0,83,0.00,,,0.00,Wunderground v.1.15,2013-09-30 08:20:00,
2013-09-30 03:30:00,53.0,48.0,29.88,South,173,0.0,0.0,83,0.00,,,0.00,Wunderground v.1.15,2013-09-30 08:30:00,
2013-09-30 03:35:00,53.0,48.0,29.88,South,172,0.0,0.0,83,0.00,,,0.00,Wunderground v.1.15,2013-09-30 08:35:00,
2013-09-30 03:40:00,53.0,48.3,29.89,South,178,0.0,0.0,84,0.00,,,0.00,Wunderground v.1.15,2013-09-30 08:40:00,
2013-09-30 03:45:00,53.0,48.3,29.89,South,178,0.0,0.0,84,0.00,,,0.00,Wunderground v.1.15,2013-09-30 08:45:00,
2013-09-30 03:50:00,52.8,48.1,29.88,South,178,0.0,0.0,84,0.00,,,0.00,Wunderground v.1.15,2013-09-30 08:50:00,
2013-09-30 03:55:00,52.7,48.3,29.88,South,178,0.0,0.0,85,0.00,,,0.00,Wunderground v.1.15,2013-09-30 08:55:00,
2013-09-30 04:00:00,52.5,48.1,29.88,South,178,0.0,0.0,85,0.00,,,0.00,Wunderground v.1.15,2013-09-30 09:00:00,
2013-09-30 04:05:00,52.2,47.8,29.89,South,178,0.0,0.0,85,0.00,,,0.00,Wunderground v.1.15,2013-09-30 09:05:00,
2013-09-30 04:10:00,51.9,47.5,29.89,South,178,0.0,0.0,85,0.00,,,0.00,Wunderground v.1.15,2013-09-30 09:10:00,
2013-09-30 04:19:00,51.3,47.6,29.89,South,178,0.0,0.0,87,0.00,,,0.00,Wunderground v.1.15,2013-09-30 09:19:00,
2013-09-30 04:24:00,51.1,47.4,29.89,South,178,0.0,0.0,87,0.00,,,0.00,Wunderground v.1.15,2013-09-30 09:24:00,
2013-09-30 04:30:00,50.9,47.5,29.89,South,178,0.0,0.0,88,0.00,,,0.00,Wunderground v.1.15,2013-09-30 09:30:00,
2013-09-30 04:40:00,50.7,47.3,29.89,SW,220,0.0,0.0,88,0.00,,,0.00,Wunderground v.1.15,2013-09-30 09:40:00,
2013-09-30 04:45:00,50.6,48.4,29.89,SW,220,0.0,0.0,92,0.00,,,0.00,Wunderground v.1.15,2013-09-30 09:45:00,
2013-09-30 04:50:00,50.4,47.3,29.88,SW,219,0.0,0.0,89,0.00,,,0.00,Wunderground v.1.15,2013-09-30 09:50:00,
2013-09-30 04:55:00,50.4,47.3,29.88,SW,219,0.0,0.0,89,0.00,,,0.00,Wunderground v.1.15,2013-09-30 09:55:00,
2013-09-30 05:00:00,50.4,47.6,29.87,SW,219,0.0,0.0,90,0.00,,,0.00,Wunderground v.1.15,2013-09-30 10:00:00,
2013-09-30 05:05:00,50.5,47.7,29.87,ESE,117,0.0,0.0,90,0.00,,,0.00,Wunderground v.1.15,2013-09-30 10:05:00,
2013-09-30 05:10:00,50.5,47.7,29.87,ESE,118,0.0,0.0,90,0.00,,,0.00,Wunderground v.1.15,2013-09-30 10:10:00,
2013-09-30 05:15:00,50.5,47.7,29.87,ESE,118,0.0,0.0,90,0.00,,,0.00,Wunderground v.1.15,2013-09-30 10:15:00,
2013-09-30 05:24:00,50.4,47.6,29.86,ESE,117,0.0,0.0,90,0.00,,,0.00,Wunderground v.1.15,2013-09-30 10:24:00,
2013-09-30 05:30:00,50.3,47.5,29.86,ESE,123,0.0,0.0,90,0.00,,,0.00,Wunderground v.1.15,2013-09-30 10:30:00,
2013-09-30 05:35:00,50.2,47.4,29.86,ESE,123,0.0,0.0,90,0.00,,,0.00,Wunderground v.1.15,2013-09-30 10:35:00,
2013-09-30 05:40:00,50.2,47.4,29.87,SSE,148,0.0,0.0,90,0.00,,,0.00,Wunderground v.1.15,2013-09-30 10:40:00,
2013-09-30 05:50:00,50.2,47.7,29.87,SSE,155,0.0,0.0,91,0.00,,,0.00,Wunderground v.1.15,2013-09-30 10:50:00,
2013-09-30 05:55:00,50.2,47.7,29.87,SSE,157,0.0,0.0,91,0.00,,,0.00,Wunderground v.1.15,2013-09-30 10:55:00,
2013-09-30 06:00:00,50.2,47.7,29.87,SSE,155,0.0,0.0,91,0.00,,,0.00,Wunderground v.1.15,2013-09-30 11:00:00,
2013-09-30 06:05:00,50.2,47.7,29.87,SSE,155,0.0,0.0,91,0.00,,,0.00,Wunderground v.1.15,2013-09-30 11:05:00,
2013-09-30 06:10:00,50.2,47.7,29.87,SSE,150,0.0,0.0,91,0.00,,,0.00,Wunderground v.1.15,2013-09-30 11:10:00,
2013-09-30 06:15:00,50.1,47.6,29.87,SSE,151,0.0,0.0,91,0.00,,,0.00,Wunderground v.1.15,2013-09-30 11:15:00,
2013-09-30 06:24:00,50.0,47.5,29.87,SSE,150,0.0,0.0,91,0.00,,,0.00,Wunderground v.1.15,2013-09-30 11:24:00,
2013-09-30 06:29:00,50.0,47.5,29.87,SSE,151,0.0,0.0,91,0.00,,,0.00,Wunderground v.1.15,2013-09-30 11:29:00,
2013-09-30 06:35:00,49.8,47.3,29.88,SSE,150,0.0,0.0,91,0.00,,,0.00,Wunderground v.1.15,2013-09-30 11:35:00,
2013-09-30 06:40:00,49.8,47.6,29.88,SSE,148,0.0,0.0,92,0.00,,,0.00,Wunderground v.1.15,2013-09-30 11:40:00,
2013-09-30 06:45:00,49.9,47.7,29.87,SSE,148,0.0,0.0,92,0.00,,,0.00,Wunderground v.1.15,2013-09-30 11:45:00,
2013-09-30 06:50:00,50.0,47.8,29.87,SSE,148,0.0,0.0,92,0.00,,,0.00,Wunderground v.1.15,2013-09-30 11:50:00,
2013-09-30 06:55:00,50.0,47.8,29.87,SSE,166,0.0,0.0,92,0.00,,,0.00,Wunderground v.1.15,2013-09-30 11:55:00,
2013-09-30 07:00:00,50.0,47.8,29.87,ESE,102,0.0,0.0,92,0.00,,,0.00,Wunderground v.1.15,2013-09-30 12:00:00,
2013-09-30 07:05:00,50.0,47.8,29.87,ESE,115,0.0,0.0,92,0.00,,,0.00,Wunderground v.1.15,2013-09-30 12:05:00,
2013-09-30 07:10:00,50.0,47.8,29.88,ESE,115,0.0,0.0,92,0.00,,,0.00,Wunderground v.1.15,2013-09-30 12:10:00,
2013-09-30 07:15:00,50.0,47.8,29.88,ESE,115,0.0,0.0,92,0.00,,,0.00,Wunderground v.1.15,2013-09-30 12:15:00,
2013-09-30 07:24:00,50.1,47.9,29.88,ESE,115,0.0,0.0,92,0.00,,,0.00,Wunderground v.1.15,2013-09-30 12:24:00,
2013-09-30 07:30:00,50.2,48.0,29.88,ESE,115,0.0,0.0,92,0.00,,,0.00,Wunderground v.1.15,2013-09-30 12:30:00,
2013-09-30 07:35:00,50.3,48.1,29.88,ESE,115,0.0,0.0,92,0.00,,,0.00,Wunderground v.1.15,2013-09-30 12:35:00,
2013-09-30 07:40:00,50.6,48.4,29.87,SE,128,0.0,0.0,92,0.00,,,0.00,Wunderground v.1.15,2013-09-30 12:40:00,
2013-09-30 07:45:00,50.8,48.3,29.87,SSE,147,0.0,0.0,91,0.00,,,0.00,Wunderground v.1.15,2013-09-30 12:45:00,
2013-09-30 07:50:00,51.0,48.5,29.87,SSW,207,0.0,0.0,91,0.00,,,0.00,Wunderground v.1.15,2013-09-30 12:50:00,
2013-09-30 07:55:00,51.1,48.3,29.86,SSW,193,0.0,0.0,90,0.00,,,0.00,Wunderground v.1.15,2013-09-30 12:55:00,
2013-09-30 08:00:00,51.4,48.3,29.86,SSW,194,0.0,0.0,89,0.00,,,0.00,Wunderground v.1.15,2013-09-30 13:00:00,
2013-09-30 08:10:00,52.1,48.7,29.86,SE,126,0.0,0.0,88,0.00,,,0.00,Wunderground v.1.15,2013-09-30 13:10:00,
2013-09-30 08:15:00,52.6,49.1,29.86,SE,126,1.0,1.0,88,0.00,,,0.00,Wunderground v.1.15,2013-09-30 13:15:00,
2013-09-30 08:24:00,53.4,49.3,29.86,SE,143,0.0,1.0,86,0.00,,,0.00,Wunderground v.1.15,2013-09-30 13:24:00,
2013-09-30 08:30:00,54.1,49.7,29.86,SSW,200,0.0,0.0,85,0.00,,,0.00,Wunderground v.1.15,2013-09-30 13:30:00,
2013-09-30 08:35:00,54.7,50.0,29.86,South,188,0.0,0.0,84,0.00,,,0.00,Wunderground v.1.15,2013-09-30 13:35:00,
2013-09-30 08:40:00,55.3,50.2,29.86,SSW,200,0.0,0.0,83,0.00,,,0.00,Wunderground v.1.15,2013-09-30 13:40:00,
2013-09-30 08:45:00,55.5,49.8,29.86,SSE,151,0.0,0.0,81,0.00,,,0.00,Wunderground v.1.15,2013-09-30 13:45:00,
2013-09-30 08:50:00,55.9,50.2,29.86,SSW,208,1.0,1.0,81,0.00,,,0.00,Wunderground v.1.15,2013-09-30 13:50:00,
2013-09-30 08:55:00,56.4,50.6,29.86,SSW,194,1.0,1.0,81,0.00,,,0.00,Wunderground v.1.15,2013-09-30 13:55:00,
2013-09-30 09:04:00,57.1,50.6,29.86,SW,221,1.0,1.0,79,0.00,,,0.00,Wunderground v.1.15,2013-09-30 14:04:00,
2013-09-30 09:09:00,57.0,50.5,29.87,SSW,200,2.0,3.0,79,0.00,,,0.00,Wunderground v.1.15,2013-09-30 14:09:00,
2013-09-30 09:15:00,57.1,50.6,29.86,South,181,3.0,3.0,79,0.00,,,0.00,Wunderground v.1.15,2013-09-30 14:15:00,
2013-09-30 09:25:00,57.3,50.8,29.86,South,175,2.0,5.0,79,0.00,,,0.00,Wunderground v.1.15,2013-09-30 14:25:00,
2013-09-30 09:30:00,57.5,51.4,29.86,South,186,1.0,1.0,80,0.00,,,0.00,Wunderground v.1.15,2013-09-30 14:30:00,
2013-09-30 09:35:00,57.8,51.3,29.86,SSW,199,0.0,1.0,79,0.00,,,0.00,Wunderground v.1.15,2013-09-30 14:35:00,
2013-09-30 09:40:00,58.2,51.7,29.86,SSW,209,0.0,2.0,79,0.00,,,0.00,Wunderground v.1.15,2013-09-30 14:40:00,
2013-09-30 09:45:00,58.5,52.4,29.86,SW,233,0.0,2.0,80,0.00,,,0.00,Wunderground v.1.15,2013-09-30 14:45:00,
2013-09-30 09:50:00,59.1,52.2,29.86,SE,144,1.0,4.0,78,0.00,,,0.00,Wunderground v.1.15,2013-09-30 14:50:00,
2013-09-30 09:55:00,59.5,52.6,29.86,ESE,117,2.0,4.0,78,0.00,,,0.00,Wunderground v.1.15,2013-09-30 14:55:00,
2013-09-30 10:04:00,61.2,53.2,29.86,SSW,210,1.0,7.0,75,0.00,,,0.00,Wunderground v.1.15,2013-09-30 15:04:00,
2013-09-30 10:09:00,61.5,53.5,29.86,SW,230,2.0,2.0,75,0.00,,,0.00,Wunderground v.1.15,2013-09-30 15:09:00,
2013-09-30 10:15:00,61.9,53.5,29.86,ESE,121,1.0,2.0,74,0.00,,,0.00,Wunderground v.1.15,2013-09-30 15:15:00,
2013-09-30 10:20:00,62.5,53.7,29.86,SSW,195,0.0,0.0,73,0.00,,,0.00,Wunderground v.1.15,2013-09-30 15:20:00,
2013-09-30 10:25:00,62.8,54.0,29.86,SSW,207,1.0,1.0,73,0.00,,,0.00,Wunderground v.1.15,2013-09-30 15:25:00,
2013-09-30 10:35:00,63.7,53.7,29.86,SW,218,2.0,5.0,70,0.00,,,0.00,Wunderground v.1.15,2013-09-30 15:35:00,
2013-09-30 10:40:00,64.0,54.0,29.86,SSW,207,3.0,7.0,70,0.00,,,0.00,Wunderground v.1.15,2013-09-30 15:40:00,
2013-09-30 10:45:00,64.3,53.1,29.85,SW,227,3.0,7.0,67,0.00,,,0.00,Wunderground v.1.15,2013-09-30 15:45:00,
2013-09-30 10:50:00,64.4,53.6,29.85,South,175,3.0,3.0,68,0.00,,,0.00,Wunderground v.1.15,2013-09-30 15:50:00,
2013-09-30 10:59:00,64.7,53.5,29.85,South,184,2.0,2.0,67,0.00,,,0.00,Wunderground v.1.15,2013-09-30 15:59:00,
2013-09-30 11:05:00,64.8,53.2,29.85,South,191,4.0,8.0,66,0.00,,,0.00,Wunderground v.1.15,2013-09-30 16:05:00,
2013-09-30 11:10:00,65.0,53.4,29.85,South,190,5.0,7.0,66,0.00,,,0.00,Wunderground v.1.15,2013-09-30 16:10:00,
2013-09-30 11:15:00,65.0,53.4,29.85,SW,234,4.0,7.0,66,0.00,,,0.00,Wunderground v.1.15,2013-09-30 16:15:00,
2013-09-30 11:20:00,65.4,53.7,29.85,SSW,198,3.0,3.0,66,0.00,,,0.00,Wunderground v.1.15,2013-09-30 16:20:00,
2013-09-30 11:25:00,66.0,54.3,29.84,SE,126,2.0,3.0,66,0.00,,,0.00,Wunderground v.1.15,2013-09-30 16:25:00,
2013-09-30 11:34:00,66.5,54.4,29.84,WSW,258,3.0,3.0,65,0.00,,,0.00,Wunderground v.1.15,2013-09-30 16:34:00,
2013-09-30 11:40:00,66.7,54.6,29.84,SW,221,2.0,8.0,65,0.00,,,0.00,Wunderground v.1.15,2013-09-30 16:40:00,
2013-09-30 11:45:00,66.9,54.3,29.84,SW,221,3.0,8.0,64,0.00,,,0.00,Wunderground v.1.15,2013-09-30 16:45:00,
2013-09-30 11:50:00,67.2,54.6,29.84,South,176,3.0,3.0,64,0.00,,,0.00,Wunderground v.1.15,2013-09-30 16:50:00,
2013-09-30 11:55:00,67.7,54.6,29.84,South,174,2.0,3.0,63,0.00,,,0.00,Wunderground v.1.15,2013-09-30 16:55:00,
2013-09-30 12:00:00,68.3,54.8,29.83,South,186,2.0,2.0,62,0.00,,,0.00,Wunderground v.1.15,2013-09-30 17:00:00,
2013-09-30 12:05:00,68.9,54.9,29.84,South,181,2.0,2.0,61,0.00,,,0.00,Wunderground v.1.15,2013-09-30 17:05:00,
2013-09-30 12:14:00,68.9,54.4,29.83,SW,232,2.0,2.0,60,0.00,,,0.00,Wunderground v.1.15,2013-09-30 17:14:00,
2013-09-30 12:20:00,69.4,54.9,29.83,SSW,212,3.0,7.0,60,0.00,,,0.00,Wunderground v.1.15,2013-09-30 17:20:00,
2013-09-30 12:25:00,69.1,54.6,29.83,South,183,2.0,7.0,60,0.00,,,0.00,Wunderground v.1.15,2013-09-30 17:25:00,
2013-09-30 12:30:00,69.5,55.0,29.83,SSE,167,3.0,3.0,60,0.00,,,0.00,Wunderground v.1.15,2013-09-30 17:30:00,
2013-09-30 12:35:00,70.1,55.1,29.82,SE,137,2.0,3.0,59,0.00,,,0.00,Wunderground v.1.15,2013-09-30 17:35:00,
2013-09-30 12:40:00,70.2,55.2,29.82,SSW,203,1.0,1.0,59,0.00,,,0.00,Wunderground v.1.15,2013-09-30 17:40:00,
2013-09-30 12:45:00,70.5,55.5,29.82,ESE,105,2.0,2.0,59,0.00,,,0.00,Wunderground v.1.15,2013-09-30 17:45:00,
2013-09-30 12:54:00,70.5,54.5,29.82,SSE,167,2.0,2.0,57,0.00,,,0.00,Wunderground v.1.15,2013-09-30 17:54:00,
2013-09-30 12:59:00,70.8,54.3,29.82,SSW,206,2.0,6.0,56,0.00,,,0.00,Wunderground v.1.15,2013-09-30 17:59:00,
2013-09-30 13:04:00,70.8,53.8,29.82,SSW,203,2.0,8.0,55,0.00,,,0.00,Wunderground v.1.15,2013-09-30 18:04:00,
2013-09-30 13:10:00,71.2,54.7,29.81,South,179,2.0,2.0,56,0.00,,,0.00,Wunderground v.1.15,2013-09-30 18:10:00,
2013-09-30 13:15:00,71.8,54.3,29.81,South,184,2.0,2.0,54,0.00,,,0.00,Wunderground v.1.15,2013-09-30 18:15:00,
2013-09-30 13:20:00,71.7,53.7,29.81,SW,218,2.0,2.0,53,0.00,,,0.00,Wunderground v.1.15,2013-09-30 18:20:00,
2013-09-30 13:25:00,72.1,52.4,29.81,South,174,3.0,3.0,50,0.00,,,0.00,Wunderground v.1.15,2013-09-30 18:25:00,
2013-09-30 13:34:00,72.7,54.1,29.80,SSE,152,1.0,2.0,52,0.00,,,0.00,Wunderground v.1.15,2013-09-30 18:34:00,
2013-09-30 13:40:00,72.7,52.4,29.80,South,189,1.0,2.0,49,0.00,,,0.00,Wunderground v.1.15,2013-09-30 18:40:00,
2013-09-30 13:45:00,72.6,53.4,29.80,SW,214,3.0,6.0,51,0.00,,,0.00,Wunderground v.1.15,2013-09-30 18:45:00,
2013-09-30 13:50:00,72.8,53.1,29.80,SSW,197,3.0,3.0,50,0.00,,,0.00,Wunderground v.1.15,2013-09-30 18:50:00,
2013-09-30 13:55:00,73.0,52.7,29.79,South,181,2.0,7.0,49,0.00,,,0.00,Wunderground v.1.15,2013-09-30 18:55:00,
2013-09-30 14:00:00,73.2,52.3,29.79,SW,217,3.0,6.0,48,0.00,,,0.00,Wunderground v.1.15,2013-09-30 19:00:00,
2013-09-30 14:05:00,73.3,52.4,29.79,South,183,3.0,6.0,48,0.00,,,0.00,Wunderground v.1.15,2013-09-30 19:05:00,
2013-09-30 14:10:00,73.2,52.3,29.79,SSW,199,3.0,3.0,48,0.00,,,0.00,Wunderground v.1.15,2013-09-30 19:10:00,
2013-09-30 14:15:00,73.6,52.7,29.79,SW,218,2.0,3.0,48,0.00,,,0.00,Wunderground v.1.15,2013-09-30 19:15:00,
2013-09-30 14:20:00,73.7,53.3,29.78,ESE,104,2.0,2.0,49,0.00,,,0.00,Wunderground v.1.15,2013-09-30 19:20:00,
2013-09-30 14:30:00,73.8,52.3,29.78,SW,224,3.0,3.0,47,0.00,,,0.00,Wunderground v.1.15,2013-09-30 19:30:00,
2013-09-30 14:35:00,74.1,52.0,29.78,South,186,3.0,5.0,46,0.00,,,0.00,Wunderground v.1.15,2013-09-30 19:35:00,
2013-09-30 14:44:00,74.3,52.8,29.77,SSE,151,2.0,3.0,47,0.00,,,0.00,Wunderground v.1.15,2013-09-30 19:44:00,
2013-09-30 14:49:00,74.4,53.4,29.77,WNW,294,2.0,2.0,48,0.00,,,0.00,Wunderground v.1.15,2013-09-30 19:49:00,
2013-09-30 14:55:00,74.4,52.9,29.77,South,175,3.0,3.0,47,0.00,,,0.00,Wunderground v.1.15,2013-09-30 19:55:00,
2013-09-30 15:00:00,74.6,53.0,29.77,SSW,197,3.0,3.0,47,0.00,,,0.00,Wunderground v.1.15,2013-09-30 20:00:00,
2013-09-30 15:05:00,74.8,53.2,29.77,WSW,238,3.0,3.0,47,0.00,,,0.00,Wunderground v.1.15,2013-09-30 20:05:00,
2013-09-30 15:10:00,74.9,53.3,29.77,South,187,3.0,3.0,47,0.00,,,0.00,Wunderground v.1.15,2013-09-30 20:10:00,
2013-09-30 15:15:00,75.2,51.8,29.77,SSW,198,2.0,3.0,44,0.00,,,0.00,Wunderground v.1.15,2013-09-30 20:15:00,
2013-09-30 15:25:00,75.3,52.5,29.76,SSE,161,3.0,3.0,45,0.00,,,0.00,Wunderground v.1.15,2013-09-30 20:25:00,
2013-09-30 15:30:00,75.9,51.8,29.76,South,189,2.0,2.0,43,0.00,,,0.00,Wunderground v.1.15,2013-09-30 20:30:00,
2013-09-30 15:39:00,76.0,50.6,29.76,SSW,207,4.0,6.0,41,0.00,,,0.00,Wunderground v.1.15,2013-09-30 20:39:00,
2013-09-30 15:45:00,75.7,51.6,29.76,SW,234,4.0,6.0,43,0.00,,,0.00,Wunderground v.1.15,2013-09-30 20:45:00,
2013-09-30 15:50:00,75.9,51.8,29.76,South,184,2.0,2.0,43,0.00,,,0.00,Wunderground v.1.15,2013-09-30 20:50:00,
2013-09-30 15:55:00,76.2,51.4,29.76,South,172,2.0,2.0,42,0.00,,,0.00,Wunderground v.1.15,2013-09-30 20:55:00,
2013-09-30 16:00:00,76.2,52.1,29.75,SW,218,2.0,2.0,43,0.00,,,0.00,Wunderground v.1.15,2013-09-30 21:00:00,
2013-09-30 16:05:00,76.1,50.7,29.75,SE,145,3.0,3.0,41,0.00,,,0.00,Wunderground v.1.15,2013-09-30 21:05:00,
2013-09-30 16:10:00,76.2,51.4,29.75,SE,132,3.0,3.0,42,0.00,,,0.00,Wunderground v.1.15,2013-09-30 21:10:00,
2013-09-30 16:15:00,76.4,51.0,29.75,SSW,195,2.0,4.0,41,0.00,,,0.00,Wunderground v.1.15,2013-09-30 21:15:00,
2013-09-30 16:24:00,76.4,51.6,29.74,SSW,207,3.0,3.0,42,0.00,,,0.00,Wunderground v.1.15,2013-09-30 21:24:00,
2013-09-30 16:30:00,76.5,51.0,29.74,South,182,3.0,3.0,41,0.00,,,0.00,Wunderground v.1.15,2013-09-30 21:30:00,
2013-09-30 16:40:00,76.2,50.8,29.74,SE,134,3.0,3.0,41,0.00,,,0.00,Wunderground v.1.15,2013-09-30 21:40:00,
2013-09-30 16:45:00,76.1,50.7,29.74,SSW,199,5.0,5.0,41,0.00,,,0.00,Wunderground v.1.15,2013-09-30 21:45:00,
2013-09-30 16:50:00,76.3,51.5,29.74,SSW,195,3.0,3.0,42,0.00,,,0.00,Wunderground v.1.15,2013-09-30 21:50:00,
2013-09-30 16:55:00,76.3,52.2,29.74,South,190,1.0,10.0,43,0.00,,,0.00,Wunderground v.1.15,2013-09-30 21:55:00,
2013-09-30 17:04:00,76.0,51.9,29.73,SSE,151,3.0,3.0,43,0.00,,,0.00,Wunderground v.1.15,2013-09-30 22:04:00,
2013-09-30 17:09:00,75.9,51.2,29.73,ESE,102,3.0,3.0,42,0.00,,,0.00,Wunderground v.1.15,2013-09-30 22:09:00,
2013-09-30 17:15:00,75.9,51.8,29.73,SSE,160,2.0,3.0,43,0.00,,,0.00,Wunderground v.1.15,2013-09-30 22:15:00,
2013-09-30 17:20:00,75.9,51.8,29.73,SSE,155,1.0,1.0,43,0.00,,,0.00,Wunderground v.1.15,2013-09-30 22:20:00,
2013-09-30 17:25:00,75.5,50.8,29.73,SSW,192,2.0,2.0,42,0.00,,,0.00,Wunderground v.1.15,2013-09-30 22:25:00,
2013-09-30 17:30:00,75.2,50.5,29.73,SW,217,3.0,3.0,42,0.00,,,0.00,Wunderground v.1.15,2013-09-30 22:30:00,
2013-09-30 17:35:00,75.1,51.1,29.73,SSE,148,2.0,7.0,43,0.00,,,0.00,Wunderground v.1.15,2013-09-30 22:35:00,
2013-09-30 17:44:00,74.7,51.9,29.73,SSW,196,3.0,6.0,45,0.00,,,0.00,Wunderground v.1.15,2013-09-30 22:44:00,
2013-09-30 17:49:00,74.4,52.3,29.73,SSW,196,2.0,2.0,46,0.00,,,0.00,Wunderground v.1.15,2013-09-30 22:49:00,
2013-09-30 17:55:00,74.1,51.4,29.73,SSW,200,2.0,4.0,45,0.00,,,0.00,Wunderground v.1.15,2013-09-30 22:55:00,
2013-09-30 18:00:00,73.9,51.8,29.73,SSW,200,2.0,2.0,46,0.00,,,0.00,Wunderground v.1.15,2013-09-30 23:00:00,
2013-09-30 18:05:00,73.6,52.1,29.73,SSW,193,2.0,2.0,47,0.00,,,0.00,Wunderground v.1.15,2013-09-30 23:05:00,
2013-09-30 18:10:00,73.4,51.9,29.73,South,180,2.0,2.0,47,0.00,,,0.00,Wunderground v.1.15,2013-09-30 23:10:00,
2013-09-30 18:15:00,73.2,52.3,29.73,South,184,2.0,2.0,48,0.00,,,0.00,Wunderground v.1.15,2013-09-30 23:15:00,
2013-09-30 18:20:00,72.9,52.6,29.72,SSW,196,1.0,1.0,49,0.00,,,0.00,Wunderground v.1.15,2013-09-30 23:20:00,
2013-09-30 18:30:00,72.3,52.6,29.72,SSE,148,1.0,1.0,50,0.00,,,0.00,Wunderground v.1.15,2013-09-30 23:30:00,
2013-09-30 18:35:00,72.1,53.0,29.72,SSW,202,1.0,1.0,51,0.00,,,0.00,Wunderground v.1.15,2013-09-30 23:35:00,
2013-09-30 18:40:00,71.7,53.1,29.72,South,184,1.0,1.0,52,0.00,,,0.00,Wunderground v.1.15,2013-09-30 23:40:00,
2013-09-30 18:45:00,71.4,53.4,29.72,SSE,163,1.0,1.0,53,0.00,,,0.00,Wunderground v.1.15,2013-09-30 23:45:00,
2013-09-30 18:55:00,70.7,53.7,29.73,South,191,1.0,2.0,55,0.00,,,0.00,Wunderground v.1.15,2013-09-30 23:55:00,
2013-09-30 19:00:00,70.2,53.8,29.73,SSW,196,0.0,0.0,56,0.00,,,0.00,Wunderground v.1.15,2013-10-01 00:00:00,
2013-09-30 19:05:00,69.9,54.0,29.72,SSW,197,0.0,2.0,57,0.00,,,0.00,Wunderground v.1.15,2013-10-01 00:05:00,
2013-09-30 19:10:00,69.6,53.7,29.72,SSW,203,1.0,1.0,57,0.00,,,0.00,Wunderground v.1.15,2013-10-01 00:10:00,
2013-09-30 19:19:00,69.3,53.9,29.72,SSW,211,1.0,3.0,58,0.00,,,0.00,Wunderground v.1.15,2013-10-01 00:19:00,
2013-09-30 19:25:00,69.4,53.5,29.73,West,259,1.0,3.0,57,0.00,,,0.00,Wunderground v.1.15,2013-10-01 00:25:00,
2013-09-30 19:30:00,69.3,53.4,29.73,SSW,212,1.0,2.0,57,0.00,,,0.00,Wunderground v.1.15,2013-10-01 00:30:00,
2013-09-30 19:35:00,69.2,53.3,29.73,South,187,1.0,2.0,57,0.00,,,0.00,Wunderground v.1.15,2013-10-01 00:35:00,
2013-09-30 19:40:00,69.1,53.2,29.73,South,189,1.0,3.0,57,0.00,,,0.00,Wunderground v.1.15,2013-10-01 00:40:00,
2013-09-30 19:45:00,69.0,53.1,29.73,SSE,150,1.0,3.0,57,0.00,,,0.00,Wunderground v.1.15,2013-10-01 00:45:00,
2013-09-30 19:50:00,68.9,53.5,29.74,SSW,198,1.0,1.0,58,0.00,,,0.00,Wunderground v.1.15,2013-10-01 00:50:00,
2013-09-30 19:59:00,68.5,53.1,29.73,South,188,1.0,1.0,58,0.00,,,0.00,Wunderground v.1.15,2013-10-01 00:59:00,
2013-09-30 20:04:00,68.3,53.4,29.74,SSW,198,1.0,1.0,59,0.00,,,0.00,Wunderground v.1.15,2013-10-01 01:04:00,
2013-09-30 20:09:00,68.0,53.6,29.74,SSW,212,1.0,1.0,60,0.00,,,0.00,Wunderground v.1.15,2013-10-01 01:09:00,
2013-09-30 20:15:00,67.6,53.7,29.74,South,190,1.0,1.0,61,0.00,,,0.00,Wunderground v.1.15,2013-10-01 01:15:00,
2013-09-30 20:25:00,67.1,54.1,29.75,SSW,208,0.0,1.0,63,0.00,,,0.00,Wunderground v.1.15,2013-10-01 01:25:00,
2013-09-30 20:30:00,66.7,54.1,29.75,South,190,0.0,0.0,64,0.00,,,0.00,Wunderground v.1.15,2013-10-01 01:30:00,
2013-09-30 20:35:00,66.5,54.4,29.75,South,180,0.0,0.0,65,0.00,,,0.00,Wunderground v.1.15,2013-10-01 01:35:00,
2013-09-30 20:40:00,66.2,54.5,29.75,South,188,0.0,0.0,66,0.00,,,0.00,Wunderground v.1.15,2013-10-01 01:40:00,
2013-09-30 20:45:00,66.0,54.7,29.75,SW,217,0.0,0.0,67,0.00,,,0.00,Wunderground v.1.15,2013-10-01 01:45:00,
2013-09-30 20:50:00,65.9,55.0,29.75,SSW,196,0.0,0.0,68,0.00,,,0.00,Wunderground v.1.15,2013-10-01 01:50:00,
2013-09-30 20:55:00,65.8,55.3,29.75,SSW,200,0.0,0.0,69,0.00,,,0.00,Wunderground v.1.15,2013-10-01 01:55:00,
2013-09-30 21:04:00,65.7,55.6,29.76,SSW,203,0.0,0.0,70,0.00,,,0.00,Wunderground v.1.15,2013-10-01 02:04:00,
2013-09-30 21:10:00,65.6,55.5,29.76,SE,146,0.0,0.0,70,0.00,,,0.00,Wunderground v.1.15,2013-10-01 02:10:00,
2013-09-30 21:15:00,65.5,55.8,29.76,South,190,0.0,0.0,71,0.00,,,0.00,Wunderground v.1.15,2013-10-01 02:15:00,
2013-09-30 21:20:00,65.3,55.7,29.76,SSW,197,0.0,0.0,71,0.00,,,0.00,Wunderground v.1.15,2013-10-01 02:20:00,
2013-09-30 21:25:00,65.1,55.8,29.76,SSW,196,0.0,0.0,72,0.00,,,0.00,Wunderground v.1.15,2013-10-01 02:25:00,
2013-09-30 21:35:00,64.7,55.8,29.76,SSW,194,0.0,0.0,73,0.00,,,0.00,Wunderground v.1.15,2013-10-01 02:35:00,
2013-09-30 21:40:00,64.6,56.1,29.76,South,191,0.0,0.0,74,0.00,,,0.00,Wunderground v.1.15,2013-10-01 02:40:00,
2013-09-30 21:45:00,64.4,55.9,29.76,South,189,0.0,0.0,74,0.00,,,0.00,Wunderground v.1.15,2013-10-01 02:45:00,
2013-09-30 21:50:00,64.3,56.2,29.76,South,191,0.0,0.0,75,0.00,,,0.00,Wunderground v.1.15,2013-10-01 02:50:00,
2013-09-30 21:59:00,64.2,56.5,29.76,South,173,1.0,1.0,76,0.00,,,0.00,Wunderground v.1.15,2013-10-01 02:59:00,
2013-09-30 22:04:00,64.3,56.6,29.76,ESE,115,0.0,1.0,76,0.00,,,0.00,Wunderground v.1.15,2013-10-01 03:04:00,
2013-09-30 22:10:00,64.2,56.5,29.76,South,183,0.0,0.0,76,0.00,,,0.00,Wunderground v.1.15,2013-10-01 03:10:00,
2013-09-30 22:15:00,64.1,56.7,29.75,SSW,213,0.0,0.0,77,0.00,,,0.00,Wunderground v.1.15,2013-10-01 03:15:00,
2013-09-30 22:20:00,63.9,56.9,29.75,SSW,205,1.0,3.0,78,0.00,,,0.00,Wunderground v.1.15,2013-10-01 03:20:00,
2013-09-30 22:25:00,64.0,57.0,29.76,SSW,204,1.0,3.0,78,0.00,,,0.00,Wunderground v.1.15,2013-10-01 03:25:00,
2013-09-30 22:30:00,64.0,57.4,29.76,South,175,1.0,1.0,79,0.00,,,0.00,Wunderground v.1.15,2013-10-01 03:30:00,
2013-09-30 22:35:00,63.9,57.3,29.76,SW,223,1.0,1.0,79,0.00,,,0.00,Wunderground v.1.15,2013-10-01 03:35:00,
2013-09-30 22:45:00,63.8,57.5,29.76,SSW,194,1.0,4.0,80,0.00,,,0.00,Wunderground v.1.15,2013-10-01 03:45:00,
2013-09-30 22:54:00,63.6,57.7,29.76,SSW,199,1.0,3.0,81,0.00,,,0.00,Wunderground v.1.15,2013-10-01 03:54:00,
2013-09-30 22:59:00,63.6,57.7,29.77,SSW,197,1.0,1.0,81,0.00,,,0.00,Wunderground v.1.15,2013-10-01 03:59:00,
2013-09-30 23:05:00,63.5,57.9,29.77,SSE,159,1.0,1.0,82,0.00,,,0.00,Wunderground v.1.15,2013-10-01 04:05:00,
2013-09-30 23:10:00,63.5,57.9,29.77,SSE,166,1.0,1.0,82,0.00,,,0.00,Wunderground v.1.15,2013-10-01 04:10:00,
2013-09-30 23:15:00,63.5,58.2,29.77,South,177,0.0,1.0,83,0.00,,,0.00,Wunderground v.1.15,2013-10-01 04:15:00,
2013-09-30 23:20:00,63.5,58.2,29.77,South,183,0.0,0.0,83,0.00,,,0.00,Wunderground v.1.15,2013-10-01 04:20:00,
2013-09-30 23:25:00,63.4,58.1,29.77,South,186,0.0,0.0,83,0.00,,,0.00,Wunderground v.1.15,2013-10-01 04:25:00,
2013-09-30 23:30:00,63.4,58.5,29.78,SSE,167,0.0,0.0,84,0.00,,,0.00,Wunderground v.1.15,2013-10-01 04:30:00,
2013-09-30 23:35:00,63.2,58.3,29.78,SSE,168,0.0,0.0,84,0.00,,,0.00,Wunderground v.1.15,2013-10-01 04:35:00,
2013-09-30 23:40:00,63.0,58.1,29.78,SSE,167,0.0,0.0,84,0.00,,,0.00,Wunderground v.1.15,2013-10-01 04:40:00,
2013-09-30 23:45:00,62.8,58.2,29.77,South,173,0.0,0.0,85,0.00,,,0.00,Wunderground v.1.15,2013-10-01 04:45:00,
2013-09-30 23:54:00,62.5,58.3,29.77,SSW,192,0.0,0.0,86,0.00,,,0.00,Wunderground v.1.15,2013-10-01 04:54:00,
2013-09-30 23:59:00,62.5,58.3,29.77,South,190,0.0,0.0,86,0.00,,,0.00,Wunderground v.1.15,2013-10-01 04:59:00,